User: anonymous   Login
Location: Unspecified
(0.0000°N, 0.0000°E)
Time: 19:59:49
(UTC+00:00)
Language:

USA 78 - Orbit

View from above orbital plane
View from above orbital plane
View from above satellite
View from above satellite

Ground track
Ground track

The orbit data is extracted from the following two-line orbital elements,

1 21873U 92006A   19030.38171347 0.00000000  00000-0  00000-0 0    08
2 21873  13.7874  23.5616 0008804 293.6399  66.2798  0.99038360    03
Epoch (UTC): 30 January 2019 09:09:40
Eccentricity: 0.0008804
inclination: 13.7874°
perigee height: 36098 km
apogee height: 36173 km
right ascension of ascending node: 23.5616°
argument of perigee: 293.6399°
revolutions per day: 0.99038360
mean anomaly at epoch: 66.2798°
orbit number at epoch: 0

The dashed part of the orbit path shows where the satellite is in the earth's shadow,  

DLR